User: anonymous   Login
Location: Pulvis Stellarum Observatory
(41.6962°N, 71.4263°W)
Time: 01:34:47
(UTC-04:00)
Language:

Cosmos 1758 - Orbit

View from above orbital plane
View from above orbital plane
View from above satellite
View from above satellite

Ground track
Ground track

The orbit data is extracted from the following two-line orbital elements,

1 16791U 86046A   17268.56648068 +.00000488 +00000-0 +32642-4 0  9996
2 16791 082.4685 294.2722 0018068 106.3620 253.9595 15.04502815700497
Epoch (UTC): 25 September 2017 13:35:43
Eccentricity: 0.0018068
inclination: 82.4685°
perigee height: 540 km
apogee height: 565 km
right ascension of ascending node: 294.2722°
argument of perigee: 106.3620°
revolutions per day: 15.04502815
mean anomaly at epoch: 253.9595°
orbit number at epoch: 70049

The dashed part of the orbit path shows where the satellite is in the earth's shadow,  

DLR